CPA616 VTBS-VHHH

Flight info

Callsign CPA616
Flight time N/A
Altitude 37000
Route SELKA1R SELKA A1 SANOT Y15 GUROK A202 VILAO/K0920F370 A202 ASSAD/K0922S1130 A202 SIKOU/N0496F370 V571 CANTO
Aircraft A359/H-SDE2E3GHIJ3J4J5LM1ORWXY/LB1D1

Departure

Time 2026-05-08 02:59
Airport Suvarnabhumi Airport (VTBS)

Arrival

Time N/A
Airport Hong Kong International Airport (VHHH)
Time Latitude Longitude Altitude Speed Heading
2026-05-08 02:45 13.68820 100.74651 19 ft 0 kts 284°
2026-05-08 02:50 13.68820 100.74653 19 ft 2 kts 284°
2026-05-08 02:50 13.68816 100.74668 19 ft 2 kts 284°
2026-05-08 02:50 13.68813 100.74682 19 ft 0 kts 284°
2026-05-08 02:50 13.68810 100.74693 19 ft 2 kts 274°
2026-05-08 02:51 13.68812 100.74708 19 ft 2 kts 248°
2026-05-08 02:51 13.68819 100.74721 19 ft 2 kts 228°
2026-05-08 02:51 13.68831 100.74731 19 ft 2 kts 207°
2026-05-08 02:51 13.68839 100.74734 19 ft 0 kts 194°
2026-05-08 02:52 13.68843 100.74736 19 ft 0 kts 193°
2026-05-08 02:53 13.68839 100.74734 19 ft 2 kts 194°
2026-05-08 02:53 13.68793 100.74723 19 ft 10 kts 194°
2026-05-08 02:54 13.68725 100.74702 19 ft 8 kts 211°
2026-05-08 02:54 13.68711 100.74630 19 ft 14 kts 284°
2026-05-08 02:54 13.68743 100.74507 19 ft 21 kts 284°
2026-05-08 02:54 13.68785 100.74343 19 ft 24 kts 284°
2026-05-08 02:55 13.68826 100.74175 19 ft 21 kts 284°
2026-05-08 02:55 13.68949 100.74135 19 ft 11 kts 14°
2026-05-08 02:55 13.69050 100.74161 19 ft 17 kts 14°
2026-05-08 02:56 13.69187 100.74198 19 ft 23 kts 14°
2026-05-08 02:56 13.69354 100.74242 19 ft 25 kts 14°
2026-05-08 02:56 13.69524 100.74287 19 ft 25 kts 14°
2026-05-08 02:56 13.69703 100.74333 19 ft 26 kts 15°
2026-05-08 02:57 13.69884 100.74383 19 ft 27 kts 14°
2026-05-08 02:57 13.70074 100.74431 18 ft 27 kts 14°
2026-05-08 02:57 13.70254 100.74479 16 ft 21 kts 15°
2026-05-08 02:57 13.70337 100.74434 16 ft 15 kts 289°
2026-05-08 02:58 13.70331 100.74332 16 ft 16 kts 235°
2026-05-08 02:58 13.70278 100.74290 17 ft 7 kts 191°
2026-05-08 02:58 13.69994 100.74218 19 ft 75 kts 194°
2026-05-08 02:58 13.69276 100.74030 20 ft 133 kts 194°
2026-05-08 02:59 13.68226 100.73760 191 ft 163 kts 193°
2026-05-08 02:59 13.67129 100.73475 734 ft 163 kts 193°
2026-05-08 02:59 13.66006 100.73428 1208 ft 164 kts 152°
2026-05-08 02:59 13.65328 100.74243 1808 ft 150 kts 107°
2026-05-08 03:00 13.65024 100.75278 2196 ft 156 kts 105°
2026-05-08 03:00 13.64710 100.76385 2561 ft 165 kts 106°
2026-05-08 03:00 13.64368 100.77517 3016 ft 167 kts 107°
2026-05-08 03:00 13.63999 100.78673 3401 ft 176 kts 108°
2026-05-08 03:01 13.63589 100.79920 3743 ft 189 kts 108°
2026-05-08 03:01 13.63206 100.81236 4181 ft 197 kts 96°
2026-05-08 03:01 13.63334 100.82670 4498 ft 212 kts 75°
2026-05-08 03:01 13.63752 100.84177 4890 ft 228 kts 73°
2026-05-08 03:02 13.64226 100.85792 5309 ft 244 kts 73°
2026-05-08 03:02 13.64728 100.87521 5728 ft 260 kts 74°
2026-05-08 03:02 13.65248 100.89344 6243 ft 272 kts 75°
2026-05-08 03:02 13.65773 100.91213 6939 ft 276 kts 75°
2026-05-08 03:03 13.66306 100.93121 7659 ft 279 kts 75°
2026-05-08 03:03 13.66835 100.95021 8378 ft 281 kts 75°
2026-05-08 03:03 13.67375 100.96963 9108 ft 283 kts 75°
2026-05-08 03:03 13.67911 100.98894 9793 ft 285 kts 75°
2026-05-08 03:04 13.68461 101.00877 10385 ft 292 kts 75°
2026-05-08 03:04 13.69024 101.02910 10716 ft 307 kts 75°
2026-05-08 03:04 13.69623 101.05074 11025 ft 323 kts 75°
2026-05-08 03:04 13.70259 101.07371 11323 ft 339 kts 75°
2026-05-08 03:05 13.70933 101.09730 11591 ft 354 kts 71°
2026-05-08 03:05 13.71945 101.12081 11866 ft 369 kts 62°
2026-05-08 03:05 13.73411 101.14331 12121 ft 384 kts 53°
2026-05-08 03:05 13.75130 101.16476 12479 ft 394 kts 51°
2026-05-08 03:06 13.76931 101.18658 13009 ft 399 kts 51°
2026-05-08 03:06 13.78719 101.20821 13570 ft 402 kts 51°
2026-05-08 03:06 13.80545 101.23038 14114 ft 405 kts 51°
2026-05-08 03:06 13.82364 101.25253 14631 ft 408 kts 51°
2026-05-08 03:07 13.84205 101.27500 15134 ft 411 kts 51°
2026-05-08 03:07 13.86032 101.29736 15621 ft 414 kts 51°
2026-05-08 03:07 13.87914 101.32041 16120 ft 417 kts 51°
2026-05-08 03:07 13.89778 101.34327 16591 ft 420 kts 51°
2026-05-08 03:08 13.91667 101.36643 17064 ft 423 kts 52°
2026-05-08 03:08 13.93567 101.38973 17502 ft 426 kts 52°
2026-05-08 03:08 13.95453 101.41290 17925 ft 429 kts 52°
2026-05-08 03:08 13.97382 101.43658 18350 ft 432 kts 52°
2026-05-08 03:09 13.99327 101.46047 18757 ft 435 kts 51°
2026-05-08 03:09 14.01269 101.48433 19168 ft 438 kts 52°
2026-05-08 03:09 14.03221 101.50830 19583 ft 440 kts 51°
2026-05-08 03:09 14.05203 101.53268 19976 ft 443 kts 52°
2026-05-08 03:10 14.07178 101.55695 20358 ft 445 kts 52°
2026-05-08 03:10 14.09168 101.58144 20734 ft 448 kts 51°
2026-05-08 03:10 14.11198 101.60638 21101 ft 451 kts 51°
2026-05-08 03:10 14.13218 101.63106 21453 ft 453 kts 51°
2026-05-08 03:11 14.15249 101.65590 21782 ft 456 kts 51°
2026-05-08 03:11 14.17285 101.68098 22109 ft 459 kts 52°
2026-05-08 03:11 14.19337 101.70636 22438 ft 461 kts 51°
2026-05-08 03:11 14.21399 101.73185 22777 ft 463 kts 51°
2026-05-08 03:12 14.23472 101.75745 23115 ft 466 kts 51°
2026-05-08 03:12 14.25538 101.78294 23455 ft 467 kts 51°
2026-05-08 03:12 14.27626 101.80872 23794 ft 469 kts 51°
2026-05-08 03:12 14.29716 101.83451 24111 ft 471 kts 51°
2026-05-08 03:13 14.31750 101.86103 24413 ft 472 kts 56°
2026-05-08 03:13 14.33542 101.89002 24738 ft 473 kts 62°
2026-05-08 03:13 14.34998 101.92020 25028 ft 474 kts 67°
2026-05-08 03:13 14.36174 101.95168 25301 ft 476 kts 71°
2026-05-08 03:14 14.37283 101.98401 25567 ft 478 kts 71°
2026-05-08 03:14 14.38374 102.01643 25809 ft 481 kts 71°
2026-05-08 03:14 14.39468 102.04897 26066 ft 482 kts 71°
2026-05-08 03:14 14.40578 102.08185 26329 ft 484 kts 71°
2026-05-08 03:15 14.41683 102.11451 26566 ft 486 kts 71°
2026-05-08 03:15 14.42799 102.14741 26804 ft 487 kts 71°
2026-05-08 03:15 14.43909 102.18008 27041 ft 488 kts 71°
2026-05-08 03:15 14.45042 102.21346 27281 ft 490 kts 71°
2026-05-08 03:16 14.46168 102.24662 27496 ft 491 kts 71°
2026-05-08 03:16 14.47296 102.27986 27709 ft 492 kts 71°
2026-05-08 03:16 14.48429 102.31327 27950 ft 493 kts 71°
2026-05-08 03:16 14.49547 102.34623 28143 ft 495 kts 71°
2026-05-08 03:17 14.50694 102.38007 28317 ft 497 kts 71°
2026-05-08 03:17 14.51831 102.41360 28513 ft 498 kts 71°
2026-05-08 03:17 14.52971 102.44723 28732 ft 498 kts 71°
2026-05-08 03:17 14.54110 102.48084 29006 ft 497 kts 71°
2026-05-08 03:18 14.55251 102.51458 29380 ft 495 kts 71°
2026-05-08 03:18 14.56382 102.54807 29749 ft 492 kts 70°
2026-05-08 03:18 14.57494 102.58099 30079 ft 491 kts 70°
2026-05-08 03:18 14.58618 102.61426 30360 ft 490 kts 71°
2026-05-08 03:19 14.59738 102.64743 30651 ft 489 kts 71°
2026-05-08 03:19 14.60864 102.68093 31010 ft 487 kts 71°
2026-05-08 03:19 14.61967 102.71379 31380 ft 484 kts 71°
2026-05-08 03:19 14.63069 102.74661 31685 ft 483 kts 71°
2026-05-08 03:20 14.64167 102.77923 31947 ft 483 kts 71°
2026-05-08 03:20 14.65262 102.81178 32192 ft 483 kts 70°
2026-05-08 03:20 14.66362 102.84456 32473 ft 482 kts 71°
2026-05-08 03:20 14.67457 102.87717 32819 ft 481 kts 71°
2026-05-08 03:21 14.68559 102.91003 33145 ft 480 kts 71°
2026-05-08 03:21 14.69641 102.94233 33467 ft 480 kts 71°
2026-05-08 03:21 14.70726 102.97470 33828 ft 478 kts 71°
2026-05-08 03:21 14.71811 103.00706 34177 ft 477 kts 70°
2026-05-08 03:22 14.72895 103.03942 34468 ft 477 kts 70°
2026-05-08 03:22 14.73979 103.07177 34742 ft 477 kts 70°
2026-05-08 03:22 14.75074 103.10444 35053 ft 477 kts 70°
2026-05-08 03:22 14.76154 103.13671 35317 ft 477 kts 70°
2026-05-08 03:23 14.77227 103.16877 35470 ft 479 kts 70°
2026-05-08 03:23 14.78323 103.20152 35599 ft 480 kts 70°
2026-05-08 03:23 14.79409 103.23399 35756 ft 482 kts 70°
2026-05-08 03:23 14.80510 103.26695 35931 ft 482 kts 70°
2026-05-08 03:24 14.81593 103.29937 36094 ft 483 kts 70°
2026-05-08 03:24 14.82724 103.33238 36231 ft 484 kts 68°
2026-05-08 03:24 14.83995 103.36457 36383 ft 484 kts 65°
2026-05-08 03:24 14.85430 103.39595 36531 ft 485 kts 62°
2026-05-08 03:25 14.87022 103.42637 36664 ft 485 kts 59°
2026-05-08 03:25 14.88790 103.45617 36791 ft 486 kts 56°
2026-05-08 03:25 14.90708 103.48484 36893 ft 486 kts 53°
2026-05-08 03:26 14.94965 103.53919 36905 ft 487 kts 49°
2026-05-08 03:26 14.99383 103.59236 36906 ft 488 kts 49°
2026-05-08 03:27 15.03822 103.64592 36911 ft 488 kts 49°
2026-05-08 03:27 15.08219 103.69924 36911 ft 488 kts 48°
2026-05-08 03:28 15.13019 103.74870 36914 ft 487 kts 40°
2026-05-08 03:28 15.18415 103.79092 36905 ft 487 kts 33°
2026-05-08 03:29 15.24337 103.82555 36896 ft 487 kts 25°
2026-05-08 03:29 15.30541 103.85357 36896 ft 486 kts 23°
2026-05-08 03:30 15.39916 103.89452 36891 ft 485 kts 23°
2026-05-08 03:31 15.52361 103.94913 36890 ft 484 kts 23°
2026-05-08 03:32 15.61664 103.99004 36888 ft 484 kts 23°
2026-05-08 03:32 15.67893 104.01748 36889 ft 484 kts 22°
2026-05-08 03:33 15.74068 104.04469 36886 ft 483 kts 22°
2026-05-08 03:33 15.80265 104.07199 36886 ft 483 kts 22°
2026-05-08 03:34 15.86473 104.09937 36885 ft 484 kts 22°
2026-05-08 03:34 15.92707 104.12688 36887 ft 483 kts 22°
2026-05-08 03:35 15.98795 104.15576 36888 ft 483 kts 27°
2026-05-08 03:35 16.04548 104.19189 36886 ft 484 kts 34°
2026-05-08 03:36 16.09872 104.23551 36889 ft 486 kts 41°
2026-05-08 03:36 16.14651 104.28528 36900 ft 487 kts 46°
2026-05-08 03:37 16.19215 104.33730 36899 ft 488 kts 46°
2026-05-08 03:37 16.23772 104.38957 36905 ft 488 kts 46°
2026-05-08 03:38 16.28348 104.44205 36911 ft 487 kts 46°
2026-05-08 03:38 16.32881 104.49458 36911 ft 488 kts 47°
2026-05-08 03:39 16.37382 104.54690 36908 ft 488 kts 47°
2026-05-08 03:39 16.41921 104.59970 36914 ft 488 kts 47°
2026-05-08 03:40 16.46435 104.65227 36909 ft 489 kts 47°
2026-05-08 03:40 16.50956 104.70522 36908 ft 489 kts 47°
2026-05-08 03:41 16.55387 104.75909 36905 ft 489 kts 51°
2026-05-08 03:41 16.59330 104.81703 36904 ft 491 kts 56°
2026-05-08 03:42 16.63038 104.87707 36900 ft 491 kts 56°
2026-05-08 03:42 16.66713 104.93685 36899 ft 491 kts 56°
2026-05-08 03:43 16.70397 104.99671 36897 ft 491 kts 56°
2026-05-08 03:43 16.74094 105.05682 36891 ft 492 kts 56°
2026-05-08 03:44 16.77794 105.11700 36888 ft 492 kts 56°
2026-05-08 03:44 16.81464 105.17673 36896 ft 491 kts 56°
2026-05-08 03:45 16.85153 105.23684 36901 ft 491 kts 56°
2026-05-08 03:45 16.88833 105.29696 36907 ft 491 kts 56°
2026-05-08 03:46 16.92481 105.35664 36909 ft 491 kts 56°
2026-05-08 03:46 16.96172 105.41708 36914 ft 490 kts 56°
2026-05-08 03:47 16.99818 105.47678 36918 ft 490 kts 56°
2026-05-08 03:47 17.03492 105.53705 36922 ft 490 kts 56°
2026-05-08 03:48 17.07150 105.59706 36921 ft 489 kts 56°
2026-05-08 03:48 17.10785 105.65672 36925 ft 490 kts 56°
2026-05-08 03:49 17.14449 105.71678 36921 ft 490 kts 56°
2026-05-08 03:49 17.18104 105.77683 36928 ft 490 kts 56°
2026-05-08 03:50 17.21762 105.83704 36928 ft 490 kts 56°
2026-05-08 03:50 17.25404 105.89708 36928 ft 489 kts 56°
2026-05-08 03:51 17.29029 105.95691 36932 ft 489 kts 56°
2026-05-08 03:51 17.32668 106.01700 36944 ft 488 kts 56°
2026-05-08 03:52 17.36313 106.07726 36966 ft 489 kts 56°
2026-05-08 03:52 17.39974 106.13694 36980 ft 489 kts 55°
2026-05-08 03:53 17.43676 106.19685 36981 ft 489 kts 55°
2026-05-08 03:53 17.47341 106.25628 36969 ft 488 kts 55°
2026-05-08 03:54 17.51043 106.31641 36943 ft 488 kts 55°
2026-05-08 03:54 17.54699 106.37590 36930 ft 488 kts 55°
2026-05-08 03:55 17.58366 106.43562 36917 ft 488 kts 55°
2026-05-08 03:55 17.62037 106.49547 36909 ft 488 kts 55°
2026-05-08 03:56 17.65695 106.55515 36901 ft 488 kts 55°
2026-05-08 03:56 17.69356 106.61498 36910 ft 489 kts 55°
2026-05-08 03:57 17.73006 106.67487 36912 ft 489 kts 55°
2026-05-08 03:57 17.76667 106.73529 36916 ft 489 kts 55°
2026-05-08 03:58 17.80314 106.79532 36916 ft 489 kts 55°
2026-05-08 03:58 17.83958 106.85520 36919 ft 489 kts 55°
2026-05-08 03:59 17.87626 106.91556 36915 ft 489 kts 55°
2026-05-08 03:59 17.91261 106.97528 36912 ft 488 kts 55°
2026-05-08 04:00 17.94934 107.03539 36916 ft 489 kts 55°
2026-05-08 04:00 17.98591 107.09528 36915 ft 489 kts 55°
2026-05-08 04:01 18.02277 107.15567 36918 ft 489 kts 55°
2026-05-08 04:01 18.05937 107.21571 36917 ft 490 kts 55°
2026-05-08 04:02 18.09583 107.27576 36918 ft 490 kts 55°
2026-05-08 04:02 18.13272 107.33626 36919 ft 490 kts 55°
2026-05-08 04:03 18.16926 107.39617 36918 ft 490 kts 55°
2026-05-08 04:03 18.22416 107.48671 36918 ft 490 kts 55°
2026-05-08 04:04 18.26083 107.54737 36916 ft 490 kts 55°
2026-05-08 04:04 18.29739 107.60790 36917 ft 491 kts 55°
2026-05-08 04:05 18.33450 107.66823 36914 ft 490 kts 53°
2026-05-08 04:05 18.37580 107.72504 36919 ft 489 kts 49°
2026-05-08 04:06 18.41890 107.77988 36920 ft 489 kts 48°
2026-05-08 04:06 18.46231 107.83494 36928 ft 489 kts 48°
2026-05-08 04:07 18.50584 107.89024 36927 ft 489 kts 48°
2026-05-08 04:07 18.54898 107.94511 36927 ft 489 kts 48°
2026-05-08 04:08 18.59237 108.00037 36929 ft 489 kts 48°
2026-05-08 04:08 18.63564 108.05552 36928 ft 489 kts 48°
2026-05-08 04:09 18.67896 108.11081 36933 ft 489 kts 48°
2026-05-08 04:09 18.72212 108.16594 36933 ft 489 kts 48°
2026-05-08 04:10 18.76567 108.22158 36930 ft 490 kts 48°
2026-05-08 04:10 18.80873 108.27666 36931 ft 490 kts 48°
2026-05-08 04:11 18.85216 108.33229 36933 ft 490 kts 47°
2026-05-08 04:11 18.89526 108.38753 36936 ft 490 kts 47°
2026-05-08 04:12 18.93880 108.44334 36936 ft 490 kts 47°
2026-05-08 04:12 18.98206 108.49889 36939 ft 490 kts 48°
2026-05-08 04:13 19.02531 108.55445 36938 ft 490 kts 48°
2026-05-08 04:13 19.06833 108.60980 36937 ft 490 kts 47°
2026-05-08 04:14 19.11180 108.66575 36940 ft 491 kts 48°
2026-05-08 04:14 19.15520 108.72162 36940 ft 492 kts 48°
2026-05-08 04:15 19.19838 108.77727 36937 ft 492 kts 48°
2026-05-08 04:15 19.24188 108.83343 36940 ft 492 kts 48°
2026-05-08 04:16 19.28528 108.88951 36946 ft 493 kts 48°
2026-05-08 04:16 19.32854 108.94543 36942 ft 492 kts 48°
2026-05-08 04:17 19.37204 109.00172 36942 ft 493 kts 48°
2026-05-08 04:17 19.41549 109.05799 36942 ft 493 kts 48°
2026-05-08 04:18 19.45868 109.11401 36944 ft 494 kts 47°
2026-05-08 04:18 19.50216 109.17044 36942 ft 495 kts 47°
2026-05-08 04:19 19.54573 109.22726 36940 ft 496 kts 48°
2026-05-08 04:19 19.58903 109.28423 36939 ft 496 kts 48°
2026-05-08 04:20 19.63228 109.34115 36932 ft 497 kts 48°
2026-05-08 04:20 19.67566 109.39829 36931 ft 496 kts 48°
2026-05-08 04:21 19.71897 109.45536 36925 ft 497 kts 48°
2026-05-08 04:21 19.76232 109.51257 36926 ft 498 kts 48°
2026-05-08 04:22 19.80553 109.56962 36926 ft 498 kts 48°
2026-05-08 04:22 19.84899 109.62705 36925 ft 499 kts 48°
2026-05-08 04:23 19.89233 109.68454 36923 ft 500 kts 49°
2026-05-08 04:23 19.93577 109.74241 36920 ft 500 kts 49°
2026-05-08 04:24 19.97897 109.79981 36916 ft 500 kts 49°
2026-05-08 04:24 20.02244 109.85751 36915 ft 500 kts 48°
2026-05-08 04:25 20.06582 109.91514 36916 ft 500 kts 49°
2026-05-08 04:25 20.10933 109.97294 36916 ft 500 kts 48°
2026-05-08 04:26 20.15294 110.03055 36914 ft 501 kts 48°
2026-05-08 04:26 20.19646 110.08833 36917 ft 501 kts 49°
2026-05-08 04:27 20.23990 110.14619 36916 ft 501 kts 49°
2026-05-08 04:27 20.28320 110.20406 36915 ft 501 kts 49°
2026-05-08 04:28 20.32701 110.26213 36922 ft 501 kts 48°
2026-05-08 04:28 20.37111 110.31956 36923 ft 502 kts 48°
2026-05-08 04:29 20.41505 110.37695 36923 ft 502 kts 48°
2026-05-08 04:29 20.45815 110.43555 36924 ft 503 kts 52°
2026-05-08 04:30 20.49608 110.49865 36921 ft 506 kts 58°
2026-05-08 04:30 20.52750 110.56559 36917 ft 508 kts 64°
2026-05-08 04:31 20.55278 110.63577 36914 ft 507 kts 68°
2026-05-08 04:31 20.57615 110.70609 36925 ft 502 kts 68°
2026-05-08 04:32 20.59960 110.77633 36928 ft 502 kts 68°
2026-05-08 04:32 20.62307 110.84611 36932 ft 502 kts 68°
2026-05-08 04:33 20.64659 110.91607 36935 ft 502 kts 68°
2026-05-08 04:33 20.67015 110.98587 36937 ft 502 kts 68°
2026-05-08 04:34 20.69382 111.05593 36936 ft 503 kts 68°
2026-05-08 04:34 20.71756 111.12628 36936 ft 502 kts 68°
2026-05-08 04:35 20.74111 111.19618 36935 ft 503 kts 68°
2026-05-08 04:35 20.76470 111.26631 36933 ft 502 kts 68°
2026-05-08 04:36 20.78817 111.33609 36935 ft 503 kts 68°
2026-05-08 04:36 20.81189 111.40671 36935 ft 504 kts 68°
2026-05-08 04:37 20.83541 111.47684 36935 ft 504 kts 68°
2026-05-08 04:37 20.85901 111.54717 36934 ft 504 kts 67°
2026-05-08 04:38 20.88284 111.61781 36932 ft 504 kts 67°
2026-05-08 04:38 20.90660 111.68832 36934 ft 504 kts 68°
2026-05-08 04:39 20.93126 111.76184 36936 ft 504 kts 67°
2026-05-08 04:39 20.95499 111.83254 36932 ft 505 kts 68°
2026-05-08 04:40 20.97862 111.90295 36936 ft 504 kts 67°
2026-05-08 04:40 21.00214 111.97309 36932 ft 504 kts 67°
2026-05-08 04:41 21.02590 112.04401 36935 ft 505 kts 67°
2026-05-08 04:41 21.04952 112.11462 36942 ft 506 kts 67°
2026-05-08 04:42 21.07304 112.18508 36939 ft 505 kts 67°
2026-05-08 04:42 21.09671 112.25603 36940 ft 505 kts 67°
2026-05-08 04:43 21.12042 112.32664 36724 ft 505 kts 67°
2026-05-08 04:43 21.13224 112.36176 36449 ft 502 kts 67°
2026-05-08 04:43 21.14383 112.39640 36131 ft 499 kts 67°
2026-05-08 04:44 21.15554 112.43150 35548 ft 497 kts 67°
2026-05-08 04:44 21.16712 112.46626 34955 ft 495 kts 67°
2026-05-08 04:44 21.17863 112.50094 34360 ft 494 kts 67°
2026-05-08 04:44 21.19008 112.53546 33759 ft 496 kts 68°
2026-05-08 04:45 21.20152 112.57004 33171 ft 498 kts 68°
2026-05-08 04:45 21.21322 112.60541 32577 ft 500 kts 68°
2026-05-08 04:45 21.22470 112.64016 32041 ft 502 kts 68°
2026-05-08 04:45 21.23632 112.67543 31499 ft 502 kts 69°
2026-05-08 04:46 21.24793 112.71083 30726 ft 504 kts 69°
2026-05-08 04:46 21.25948 112.74601 29572 ft 512 kts 69°
2026-05-08 04:46 21.27125 112.78183 28796 ft 511 kts 69°
2026-05-08 04:46 21.28311 112.81792 28022 ft 510 kts 69°
2026-05-08 04:47 21.29468 112.85316 27239 ft 510 kts 69°
2026-05-08 04:47 21.30592 112.88888 26681 ft 502 kts 68°
2026-05-08 04:47 21.31695 112.92378 26384 ft 490 kts 73°
2026-05-08 04:47 21.32667 112.95872 26317 ft 479 kts 75°
2026-05-08 04:48 21.33497 112.99258 26288 ft 464 kts 72°
2026-05-08 04:48 21.34324 113.02537 26234 ft 446 kts 71°
2026-05-08 04:48 21.35247 113.05589 26219 ft 430 kts 66°
2026-05-08 04:48 21.36241 113.08550 26088 ft 416 kts 64°
2026-05-08 04:49 21.37325 113.11383 25964 ft 402 kts 64°
2026-05-08 04:49 21.38325 113.14089 25921 ft 386 kts 65°
2026-05-08 04:49 21.39120 113.16793 26032 ft 371 kts 72°
2026-05-08 04:49 21.39735 113.19411 26151 ft 354 kts 75°
2026-05-08 04:50 21.40232 113.21972 26210 ft 339 kts 78°
2026-05-08 04:50 21.40659 113.24435 25083 ft 365 kts 74°
2026-05-08 04:50 21.41426 113.27151 22399 ft 436 kts 71°
2026-05-08 04:50 21.42503 113.30286 19402 ft 492 kts 66°
2026-05-08 04:51 21.43566 113.33641 19767 ft 455 kts 91°
2026-05-08 04:51 21.42595 113.36546 16037 ft 531 kts 110°
2026-05-08 04:51 21.41910 113.38806 4964 ft 558 kts 116°
2026-05-08 04:51 21.41654 113.39553 233 ft 578 kts 114°